GW0064 Weather Reports


Display with metric or nautical units.
time (UTC)temp
F
wind
direction
speed
MPH
gust
MPH
rain 1hr
in
rain 24hr
in
rain mn
in
humidity
%
barometer
mb
20260901225000 91 271 3.0 6.0 0.00 0.00 0.00 61 1016.3
20260901224502 91 253 3.0 7.0 0.00 0.00 0.00 62 1016.4
20260901224000 91 251 4.0 8.0 0.00 0.00 0.00 60 1016.3
20260901223500 91 236 5.0 9.0 0.00 0.00 0.00 61 1016.3
20260901223001 91 245 4.0 9.0 0.00 0.00 0.00 60 1016.3
20260901222503 91 245 5.0 7.0 0.00 0.00 0.00 60 1016.3
20260901222001 91 246 5.0 8.0 0.00 0.00 0.00 60 1016.3
20260901221501 91 266 5.0 8.0 0.00 0.00 0.00 60 1016.3
20260901221000 92 234 5.0 8.0 0.00 0.00 0.00 60 1016.2
20260901220500 92 245 4.0 9.0 0.00 0.00 0.00 60 1016.2
20260901220003 92 276 4.0 9.0 0.00 0.00 0.00 61 1016.2
20260901215500 92 252 5.0 9.0 0.00 0.00 0.00 58 1016.2
20260901215002 92 240 5.0 9.0 0.00 0.00 0.00 59 1016.3
20260901214500 92 257 6.0 10.0 0.00 0.00 0.00 60 1016.2
20260901214001 92 261 7.0 9.0 0.00 0.00 0.00 59 1016.3
20260901213500 92 221 4.0 9.0 0.00 0.00 0.00 59 1016.2
20260901213000 92 236 6.0 9.0 0.00 0.00 0.00 60 1016.2
20260901211500 92 269 5.0 9.0 0.00 0.00 0.00 58 1016.2
20260901211000 92 257 6.0 11.0 0.00 0.00 0.00 57 1016.2
20260901210500 92 238 7.0 11.0 0.00 0.00 0.00 58 1016.2
20260901205502 92 245 4.0 10.0 0.00 0.00 0.00 57 1016.2
20260901205001 92 269 6.0 11.0 0.00 0.00 0.00 57 1016.2
20260901204501 92 249 6.0 11.0 0.00 0.00 0.00 59 1016.3
20260901204001 92 253 6.0 13.0 0.00 0.00 0.00 58 1016.3
20260901203500 92 269 8.0 13.0 0.00 0.00 0.00 57 1016.3
20260901203000 92 286 5.0 10.0 0.00 0.00 0.00 57 1016.3
20260901202503 92 285 7.0 11.0 0.00 0.00 0.00 59 1016.4
20260901201500 92 239 7.0 12.0 0.00 0.00 0.00 56 1016.5
20260901201000 92 259 5.0 10.0 0.00 0.00 0.00 57 1016.4
20260901200500 92 287 6.0 11.0 0.00 0.00 0.00 56 1016.4
20260901200003 92 255 6.0 10.0 0.00 0.00 0.00 57 1016.4
20260901195000 92 233 6.0 11.0 0.00 0.00 0.00 57 1016.4
20260901194500 92 226 6.0 9.0 0.00 0.00 0.00 57 1016.4
20260901194001 92 274 6.0 10.0 0.00 0.00 0.00 58 1016.4
20260901193000 92 245 6.0 12.0 0.00 0.00 0.00 58 1016.5
20260901192500 92 257 6.0 12.0 0.00 0.00 0.00 56 1016.5
20260901192000 92 229 6.0 11.0 0.00 0.00 0.00 57 1016.5
20260901190501 92 241 6.0 11.0 0.00 0.00 0.00 58 1016.6
20260901190004 92 234 6.0 11.0 0.00 0.00 0.00 58 1016.6
20260901185500 92 218 7.0 14.0 0.00 0.00 0.00 57 1016.7
20260901185001 92 252 6.0 14.0 0.00 0.00 0.00 56 1016.6
20260901184501 92 262 6.0 10.0 0.00 0.00 0.00 57 1016.6
20260901184002 92 206 7.0 13.0 0.00 0.00 0.00 57 1016.6
20260901183500 92 250 7.0 13.0 0.00 0.00 0.00 58 1016.6
20260901183001 91 215 7.0 11.0 0.00 0.00 0.00 58 1016.7
20260901182500 91 229 6.0 10.0 0.00 0.00 0.00 57 1016.8
20260901181502 91 282 7.0 12.0 0.00 0.00 0.00 56 1016.7
20260901181000 91 264 7.0 12.0 0.00 0.00 0.00 58 1016.7
20260901180500 91 259 6.0 13.0 0.00 0.00 0.00 59 1016.8
20260901180004 91 212 8.0 13.0 0.00 0.00 0.00 57 1016.8
20260901175500 91 276 5.0 10.0 0.00 0.00 0.00 60 1016.8
20260901175000 91 244 5.0 11.0 0.00 0.00 0.00 61 1016.9
20260901174500 91 238 5.0 11.0 0.00 0.00 0.00 60 1016.9
20260901173500 90 252 7.0 12.0 0.00 0.00 0.00 58 1016.9
20260901173000 90 219 5.0 11.0 0.00 0.00 0.00 59 1016.9
20260901172501 90 258 7.0 12.0 0.00 0.00 0.00 59 1017.0
20260901172002 90 250 7.0 11.0 0.00 0.00 0.00 58 1017.0
20260901171501 90 254 5.0 9.0 0.00 0.00 0.00 60 1017.0
20260901171000 89 276 5.0 10.0 0.00 0.00 0.00 60 1017.1
20260901170501 89 253 7.0 12.0 0.00 0.00 0.00 59 1017.1
20260901170003 89 266 6.0 12.0 0.00 0.00 0.00 58 1017.2
20260901165459 89 244 7.0 11.0 0.00 0.00 0.00 60 1017.3
20260901165000 89 264 6.0 11.0 0.00 0.00 0.00 61 1017.2
20260901164000 88 212 5.0 10.0 0.00 0.00 0.00 61 1017.4
20260901163500 88 230 7.0 11.0 0.00 0.00 0.00 61 1017.5
20260901162959 88 237 7.0 11.0 0.00 0.00 0.00 60 1017.4
20260901161959 88 238 5.0 12.0 0.00 0.00 0.00 61 1017.5
20260901161503 88 237 6.0 12.0 0.00 0.00 0.00 60 1017.6
20260901161004 88 241 7.0 11.0 0.00 0.00 0.00 61 1017.6
20260901160459 87 229 7.0 11.0 0.00 0.00 0.00 62 1017.6
20260901160003 87 254 6.0 9.0 0.00 0.00 0.00 62 1017.6
20260901155459 87 245 5.0 13.0 0.00 0.00 0.00 64 1017.6
20260901154459 86 262 8.0 12.0 0.00 0.00 0.00 1017.7
20260901153959 86 256 5.0 11.0 0.00 0.00 0.00 62 1017.7
20260901152959 86 269 5.0 9.0 0.00 0.00 0.00 65 1017.8
20260901152000 85 238 6.0 11.0 0.00 0.00 0.00 64 1017.8
20260901151000 85 269 6.0 10.0 0.00 0.00 0.00 64 1017.8
20260901150459 85 275 7.0 10.0 0.00 0.00 0.00 1017.7
20260901144501 0 220 6.0 10.0 0.00 0.00 0.00 1017.6
20260901143959 0 217 7.0 12.0 0.00 0.00 0.00 1017.6
20260901143500 0 231 6.0 11.0 0.00 0.00 0.00 1017.5
20260901143000 0 245 8.0 11.0 0.00 0.00 0.00 1017.6
20260901142002 0 268 5.0 8.0 0.00 0.00 0.00 1017.7
20260901140959 0 203 5.0 9.0 0.00 0.00 0.00 1017.8
20260901140459 0 237 6.0 10.0 0.00 0.00 0.00 1017.8
20260901140002 0 240 7.0 10.0 0.00 0.00 0.00 1017.8
20260901135500 0 228 5.0 12.0 0.00 0.00 0.00 1017.9
20260901135001 0 221 3.0 8.0 0.00 0.00 0.00 1018.0
20260901134459 0 242 5.0 10.0 0.00 0.00 0.00 1017.9
20260901133959 0 240 7.0 10.0 0.00 0.00 0.00 1017.8
20260901133500 0 204 5.0 9.0 0.00 0.00 0.00 1018.0
20260901132959 0 239 4.0 7.0 0.00 0.00 0.00 1018.0
20260901132459 0 223 3.0 8.0 0.00 0.00 0.00 1017.9
20260901132000 0 213 5.0 9.0 0.00 0.00 0.00 1017.9
20260901131459 0 221 5.0 9.0 0.00 0.00 0.00 1017.9
20260901130959 0 198 4.0 8.0 0.00 0.00 0.00 1017.9
20260901130459 0 223 5.0 8.0 0.00 0.00 0.00 1018.0
20260901125459 0 227 5.0 7.0 0.00 0.00 0.00 1018.0
20260901124959 0 217 5.0 7.0 0.00 0.00 0.00 1018.0
20260901124000 0 232 3.0 7.0 0.00 0.00 0.00 1017.9
20260901123459 0 231 3.0 7.0 0.00 0.00 0.00 1017.9
20260901122502 0 235 3.0 7.0 0.00 0.00 0.00 1017.9
20260901122000 0 224 4.0 7.0 0.00 0.00 0.00 1017.9
20260901121458 0 218 3.0 6.0 0.00 0.00 0.00 1017.7
20260901120959 0 246 3.0 6.0 0.00 0.00 0.00 1017.7
20260901120459 0 264 3.0 6.0 0.00 0.00 0.00 1017.7
20260901120004 0 194 3.0 5.0 0.00 0.00 0.00 1017.7
20260901115459 0 203 2.0 4.0 0.00 0.00 0.00 1017.6
20260901114959 0 196 2.0 4.0 0.00 0.00 0.00 1017.6
20260901114459 0 210 2.0 6.0 0.00 0.00 0.00 1017.6
20260901114000 0 200 3.0 6.0 0.00 0.00 0.00 1017.5
20260901113500 0 203 2.0 4.0 0.00 0.00 0.00 1017.5
20260901112959 0 187 2.0 3.0 0.00 0.00 0.00 1017.5
20260901112458 0 203 2.0 3.0 0.00 0.00 0.00 1017.4
20260901111959 0 200 1.0 3.0 0.00 0.00 0.00 1017.4
20260901110959 0 192 2.0 5.0 0.00 0.00 0.00 1017.2
20260901110007 0 195 2.0 4.0 0.00 0.00 0.00 1017.1
20260901105459 0 207 2.0 4.0 0.00 0.00 0.00 1017.2
20260901105001 0 209 1.0 6.0 0.00 0.00 0.00 1017.2
20260901104459 0 212 3.0 6.0 0.00 0.00 0.00 1017.1
20260901104000 0 198 3.0 5.0 0.00 0.00 0.00 1017.1
20260901103500 0 201 2.0 6.0 0.00 0.00 0.00 1017.1
20260901103001 0 208 3.0 6.0 0.00 0.00 0.00 1017.0
20260901102459 0 212 2.0 5.0 0.00 0.00 0.00 1017.0
20260901100959 0 197 2.0 5.0 0.00 0.00 0.00 1017.0
20260901100501 0 220 3.0 5.0 0.00 0.00 0.00 1017.0
20260901100003 0 204 3.0 5.0 0.00 0.00 0.00 1017.1
20260901095500 0 211 2.0 4.0 0.00 0.00 0.00 1017.0
20260901094959 0 210 2.0 6.0 0.00 0.00 0.00 1017.0
20260901094459 0 212 3.0 6.0 0.00 0.00 0.00 1016.9
20260901093959 0 188 3.0 6.0 0.00 0.00 0.00 1016.8
20260901093501 0 218 3.0 6.0 0.00 0.00 0.00 1016.8
20260901092500 0 215 3.0 5.0 0.00 0.00 0.00 1016.7
20260901091459 0 221 3.0 6.0 0.00 0.00 0.00 1016.6
20260901090959 0 197 3.0 6.0 0.00 0.00 0.00 1016.6
20260901090501 0 195 2.0 6.0 0.00 0.00 0.00 1016.7
20260901090002 0 227 3.0 6.0 0.00 0.00 0.00 1016.8
20260901085500 0 211 4.0 6.0 0.00 0.00 0.00 84 1016.6
20260901084958 0 217 2.0 8.0 0.00 0.00 0.00 83 1016.6
20260901084458 0 209 4.0 8.0 0.00 0.00 0.00 1016.6
20260901083458 76 238 4.0 9.0 0.00 0.00 0.00 83 1016.6
20260901082958 76 225 5.0 9.0 0.00 0.00 0.00 83 1016.6
20260901082458 76 234 4.0 8.0 0.00 0.00 0.00 82 1016.5
20260901081959 76 217 4.0 8.0 0.00 0.00 0.00 82 1016.5
20260901081500 76 211 4.0 9.0 0.00 0.00 0.00 82 1016.4
20260901080457 77 237 5.0 10.0 0.00 0.00 0.00 82 1016.5
20260901075459 77 233 5.0 10.0 0.00 0.00 0.00 82 1016.3
20260901074958 77 232 5.0 9.0 0.00 0.00 0.00 82 1016.3
20260901074458 77 226 4.0 7.0 0.00 0.00 0.00 81 1016.4
20260901073959 77 183 5.0 8.0 0.00 0.00 0.00 81 1016.4
20260901072958 77 205 4.0 8.0 0.00 0.00 0.00 81 1016.4
20260901072459 77 210 5.0 9.0 0.00 0.00 0.00 81 1016.4
20260901071959 77 237 5.0 9.0 0.00 0.00 0.00 81 1016.5
20260901071457 77 223 4.0 8.0 0.00 0.00 0.00 80 1016.5
20260901070958 77 233 5.0 8.0 0.00 0.00 0.00 80 1016.5
20260901070502 77 229 4.0 10.0 0.00 0.00 0.00 80 1016.6
20260901070001 77 226 4.0 10.0 0.00 0.00 0.00 80 1016.6
20260901065458 77 214 5.0 9.0 0.00 0.00 0.00 81 1016.6
20260901064959 77 230 5.0 8.0 0.00 0.00 0.00 81 1016.6
20260901063958 77 228 3.0 7.0 0.00 0.00 0.00 81 1016.6
20260901063458 77 200 3.0 6.0 0.00 0.00 0.00 82 1016.7
20260901062959 77 197 3.0 6.0 0.00 0.00 0.00 82 1016.7
20260901062458 77 168 3.0 7.0 0.00 0.00 0.00 82 1016.7
20260901061958 77 195 3.0 4.0 0.00 0.00 0.00 82 1016.7
20260901061458 77 204 2.0 5.0 0.00 0.00 0.00 82 1016.7
20260901061000 77 207 2.0 5.0 0.00 0.00 0.00 83 1016.8
20260901060459 77 193 3.0 4.0 0.00 0.00 0.00 83 1016.8
20260901060000 77 189 3.0 4.0 0.00 0.00 0.00 83 1016.8
20260901055458 77 186 2.0 3.0 0.00 0.00 0.00 83 1016.8
20260901055000 77 205 2.0 4.0 0.00 0.00 0.00 83 1016.8
20260901054458 77 208 2.0 4.0 0.00 0.00 0.00 83 1016.8
20260901053958 77 193 2.0 4.0 0.00 0.00 0.00 83 1016.8
20260901053458 77 192 2.0 4.0 0.00 0.00 0.00 83 1016.8
20260901053001 77 195 2.0 4.0 0.00 0.00 0.00 83 1016.9
20260901052458 77 206 2.0 5.0 0.00 0.00 0.00 83 1016.8
20260901051959 77 199 2.0 5.0 0.00 0.00 0.00 83 1016.8
20260901051458 77 191 3.0 6.0 0.00 0.00 0.00 84 1016.8
20260901050959 77 209 3.0 6.0 0.00 0.00 0.00 84 1016.8
20260901050458 77 200 2.0 6.0 0.00 0.00 0.00 84 1016.7
20260901050006 77 196 4.0 6.0 0.00 0.00 0.00 84 1016.8
20260901045501 77 201 2.0 5.0 0.00 0.00 0.00 84 1016.7
20260901045002 77 194 2.0 5.0 0.00 0.00 0.00 84 1016.7
20260901044500 77 187 2.0 5.0 0.00 0.00 0.00 84 1016.7
20260901044000 77 194 2.0 4.0 0.00 0.00 0.00 84 1016.6
20260901043502 77 197 2.0 4.0 0.00 0.00 0.00 83 1016.6
20260901042002 78 198 2.0 5.0 0.00 0.00 0.00 83 1016.5
20260901041500 78 180 2.0 5.0 0.00 0.00 0.00 82 1016.5
20260901041001 78 185 2.0 4.0 0.00 0.00 0.00 82 1016.5
20260901040501 78 188 2.0 5.0 0.00 0.00 0.00 82 1016.5
20260901040005 78 178 2.0 5.0 0.00 0.00 0.00 81 1016.5
20260901035503 78 193 3.0 6.0 0.00 0.00 0.00 81 1016.5
20260901035000 79 174 3.0 6.0 0.00 0.00 0.00 81 1016.4
20260901034001 79 160 3.0 7.0 0.00 0.00 0.00 80 1016.4
20260901033503 79 192 3.0 7.0 0.00 0.00 0.00 80 1016.4
20260901032501 78 165 3.0 5.0 0.00 0.00 0.00 80 1016.5
20260901032002 78 179 3.0 5.0 0.00 0.00 0.00 79 1016.6
20260901031001 79 186 3.0 5.0 0.00 0.00 0.00 78 1016.8
20260901030500 79 169 2.0 4.0 0.00 0.00 0.00 78 1016.8
20260901030004 79 187 2.0 4.0 0.00 0.00 0.00 78 1016.9
20260901025501 79 184 2.0 3.0 0.00 0.00 0.00 78 1017.0
20260901024501 79 186 2.0 2.0 0.00 0.00 0.00 77 1017.2
20260901024001 79 186 0.0 1.0 0.00 0.00 0.00 76 1017.2
20260901023504 79 186 0.0 1.0 0.00 0.00 0.00 76 1017.3
20260901023002 79 186 0.0 1.0 0.00 0.00 0.00 75 1017.3
20260901022501 80 186 1.0 1.0 0.00 0.00 0.00 75 1017.3
20260901022002 80 186 0.0 2.0 0.00 0.00 0.00 75 1017.4
20260901021500 80 186 0.0 3.0 0.00 0.00 0.00 75 1017.3
20260901020502 80 188 2.0 3.0 0.00 0.00 0.00 75 1017.2
20260901020004 80 184 1.0 1.0 0.00 0.00 0.00 75 1017.2
20260901015501 80 182 0.0 0.0 0.00 0.00 0.00 74 1017.1
20260901015005 80 182 0.0 1.0 0.00 0.00 0.00 74 1017.1
20260901014501 81 182 0.0 1.0 0.00 0.00 0.00 73 1017.0
20260901014001 81 182 0.0 2.0 0.00 0.00 0.00 73 1016.9
20260901013503 81 182 1.0 2.0 0.00 0.00 0.00 72 1016.9
20260901013007 81 188 0.0 1.0 0.00 0.00 0.00 72 1016.9
20260901012504 81 188 0.0 1.0 0.00 0.00 0.00 72 1016.9
20260901012004 81 188 0.0 0.0 0.00 0.00 0.00 72 1016.8
20260901011502 82 188 0.0 0.0 0.00 0.00 0.00 71 1016.7
20260901011001 82 188 0.0 0.0 0.00 0.00 0.00 70 1016.7
20260901010502 82 188 0.0 1.0 0.00 0.00 0.00 70 1016.7
20260901005003 82 186 1.0 3.0 0.00 0.00 0.00 70 1016.4
20260901004503 83 188 2.0 3.0 0.00 0.00 0.00 69 1016.3
20260901003507 83 181 2.0 3.0 0.00 0.00 0.00 70 1016.3
20260901003004 83 176 2.0 2.0 0.00 0.00 0.00 69 1016.3
20260901002501 84 186 0.0 2.0 0.00 0.00 0.00 69 1016.4
20260901002004 84 187 1.0 2.0 0.00 0.00 0.00 68 1016.4
20260901001505 84 181 0.0 2.0 0.00 0.00 0.00 67 1016.4
20260901001006 85 176 0.0 2.0 0.00 0.00 0.00 66 1016.4
20260901000508 85 190 1.0 2.0 0.00 0.00 0.00 66 1016.3
20260901000009 86 176 1.0 3.0 0.00 0.00 0.00 65 1016.3
20260831235505 86 215 2.0 3.0 0.00 0.01 0.00 64 1016.3
20260831235000 87 205 2.0 4.0 0.00 0.01 0.00 63 1016.3
20260831234501 87 224 2.0 4.0 0.00 0.01 0.00 62 1016.2
20260831234003 87 215 2.0 5.0 0.00 0.01 0.00 61 1016.2
20260831233501 87 225 2.0 5.0 0.00 0.01 0.00 61 1016.3
20260831233001 88 198 3.0 5.0 0.00 0.01 0.00 60 1016.2
20260831232502 88 228 1.0 7.0 0.00 0.01 0.00 1016.4
20260831231501 88 236 4.0 6.0 0.00 0.01 0.00 59 1016.4
20260831231001 88 207 4.0 6.0 0.00 0.01 0.00 100 1016.4
20260831230501 0 245 4.0 8.0 0.00 0.01 0.00 1016.2
20260831230007 0 224 4.0 10.0 0.00 0.01 0.00 1016.2
20260831225500 0 242 5.0 11.0 0.00 0.01 0.00 1016.2